RH
68 67 73 72 68 67 67 64 63 61 62 63 58 61 65 65 62 65 72 72 73 67 68 68 68 72 70 70 71 68 65 68 74 71 74 72 73 72 80 91 85 95 86
69 62 62 71 76 72 72 70 66 64 58 62 59 60 63 67 67 62 67 70 74 69 65 70 69 71 73 70 69 68 67 70 72 74 74 73 75 82 85 95 100 100 90
76 74 68 64 64 68 70 71 73 71 60 58 63 62 62 60 63 65 65 65 68 72 66 66 65 68 72 72 71 72 70 70 73 71 70 75 84 88 99 100 100 100 96
62 58 58 75 70 70 76 74 76 74 71 65 65 64 63 61 57 60 66 70 73 74 70 71 71 73 68 69 71 71 72 72 76 75 75 78 84 96 100 99 100 100 100
69 76 78 71 67 71 79 80 70 76 80 70 68 68 66 66 61 55 56 73 73 70 70 70 72 70 69 67 72 71 74 76 80 82 85 88 93 100 100 99 100 100 98
67 64 72 75 72 81 79 87 78 71 76 79 72 70 68 67 64 62 61 65 72 74 74 70 72 73 68 70 74 74 73 76 76 83 86 90 89 95 100 100 100 99 99
77 76 79 82 80 79 72 71 77 85 85 86 80 75 74 71 69 66 67 75 72 69 71 75 74 76 78 79 76 73 73 85 80 77 81 86 86 88 94 100 100 99 96
88 86 83 83 80 80 78 67 75 86 82 82 82 84 88 77 66 68 69 69 74 74 72 73 72 72 72 76 80 80 84 82 79 76 77 79 83 85 90 96 98 100 100
89 86 88 99 97 89 91 94 94 88 78 73 70 60 67 68 61 65 68 73 73 75 72 71 73 73 73 74 80 82 80 80 80 80 79 78 78 81 86 92 99 100 100
88 88 89 95 97 98 95 95 96 84 83 82 81 87 88 90 84 73 71 74 77 77 74 75 74 74 71 74 78 83 82 81 81 82 78 76 78 80 88 85 83 93 93
93 97 96 91 90 92 93 95 92 98 100 98 88 86 87 87 82 82 84 88 75 89 89 76 68 69 75 74 75 77 78 81 82 77 74 75 73 91 92 92 89 85 82
96 94 92 89 87 92 96 96 95 93 90 96 91 93 81 89 88 91 92 96 100 98 86 80 79 76 74 70 85 79 84 90 85 69 75 71 68 67 68 69 73 96 78
87 93 94 94 94 94 94 96 96 98 98 96 99 99 99 100 96 94 98 100 100 100 100 100 92 96 90 80 84 92 97 99 91 76 76 71 60 61 63 64 78 74 56
84 88 94 92 91 99 98 98 96 97 100 99 99 99 99 100 96 95 95 93 96 99 100 99 100 100 100 100 99 100 99 100 90 78 83 75 54 55 44 42 38 36 37
84 97 96 93 94 98 99 99 99 99 99 98 99 100 100 97 97 99 100 99 99 98 100 100 100 100 100 100 100 100 100 100 99 100 92 82 77 70 55 39 38 38 42
88 100 94 96 99 99 97 100 99 99 100 97 98 99 100 99 98 97 99 100 100 100 100 100 100 100 100 100 99 100 100 100 98 95 93 93 89 86 77 57 47 41 40
80 92 100 96 96 97 99 99 99 99 98 98 94 96 100 100 99 99 100 100 100 100 99 99 99 99 100 100 100 99 99 96 96 90 88 89 81 64 49 68 64 47 42
84 90 99 100 96 95 96 97 97 98 98 99 100 99 99 100 100 100 98 96 95 97 99 100 100 100 100 99 99 99 99 100 98 95 89 69 54 42 46 58 74 47 41
86 89 87 99 99 100 98 98 98 98 97 98 99 99 98 95 100 98 96 93 94 95 96 96 97 99 100 99 100 99 92 89 85 72 62 54 43 40 41 46 46 40 40
84 88 88 87 89 99 100 100 100 100 100 97 99 93 97 99 98 100 100 99 96 94 94 94 94 93 92 92 90 90 84 77 66 56 46 40 43 40 39 42 43 42 44
82 87 88 90 94 98 100 100 99 99 99 96 89 91 97 98 99 99 99 98 96 92 88 87 86 87 84 80 75 74 65 57 48 42 41 39 39 38 36 37 40 43 44
84 88 89 87 90 99 100 100 100 99 98 97 95 92 98 100 100 100 99 98 93 92 76 66 69 79 80 72 61 59 56 50 44 39 38 39 37 37 36 39 40 40 41
86 85 87 90 93 94 98 100 100 100 100 98 96 92 95 95 96 96 94 92 87 76 66 61 59 59 64 60 56 55 50 49 44 42 42 42 41 43 42 42 43 42 42
84 84 84 84 87 90 90 92 94 97 96 95 94 92 91 92 92 90 86 76 67 60 57 55 52 50 50 52 53 51 49 49 50 46 42 41 40 41 42 42 43 43 43
80 82 81 83 85 84 82 82 84 84 84 80 74 74 73 74 78 76 68 58 52 47 48 49 48 46 48 49 51 50 50 50 48 45 44 45 46 45 45 44 45 45 47
76 77 72 68 70 75 78 77 75 75 78 77 68 58 54 47 44 45 47 46 45 44 46 47 46 48 48 47 48 48 49 47 46 47 47 47 48 46 45 44 44 48 47
Wind_Speed
23 23 24 31 32 29 29 28 25 21 19 21 19 18 22 22 20 20 18 17 16 14 13 14 13 10 7 7 4 4 7 6 3 3 5 3 6 7 6 9 7 6 6
24 31 25 25 26 27 28 29 28 26 23 20 22 22 22 25 26 24 22 22 21 19 16 13 14 11 10 8 11 8 8 9 8 7 7 4 5 6 11 10 9 8 7
19 20 23 24 26 26 28 29 30 27 24 24 22 22 22 23 24 25 24 23 21 21 18 17 19 14 12 11 9 9 8 7 8 8 9 6 4 7 10 11 10 8 6
22 22 22 22 22 20 23 27 28 28 29 26 26 26 26 26 26 26 22 21 21 22 21 20 16 16 16 16 16 16 13 12 11 10 8 8 7 6 12 15 10 9 7
16 14 16 15 13 18 18 24 27 26 28 32 29 29 29 28 25 27 27 23 22 23 21 20 19 19 19 17 16 19 16 15 13 11 10 8 8 8 13 13 12 11 9
18 19 18 15 13 17 18 19 21 24 26 30 34 34 32 32 29 26 25 26 25 24 24 23 20 20 19 17 17 18 21 19 16 14 13 10 12 10 11 15 15 11 5
21 24 24 21 18 18 17 13 21 21 21 28 30 33 34 34 33 30 28 28 27 27 27 25 25 22 20 18 17 16 16 17 17 15 14 13 11 12 12 14 17 15 7
17 20 24 23 19 20 20 21 21 23 17 19 21 24 29 36 34 32 31 30 31 30 28 28 28 26 25 22 18 15 14 14 14 12 12 11 11 11 13 13 15 12 6
12 15 15 12 17 21 23 22 17 18 18 21 24 24 27 34 33 34 30 32 35 35 32 32 30 29 30 27 22 18 16 15 13 11 11 11 12 13 14 13 15 15 4
9 9 6 3 3 4 5 7 14 17 20 19 17 16 19 23 23 30 30 30 34 37 37 36 35 34 29 31 30 26 23 22 19 16 13 11 11 12 12 13 16 18 10
3 5 4 3 3 4 6 5 5 5 5 14 19 19 19 19 17 22 24 26 35 33 33 38 37 36 36 35 36 32 29 25 22 19 17 15 13 14 16 15 13 13 12
8 5 3 3 4 5 5 5 5 4 4 4 10 16 29 27 23 19 17 17 19 25 30 33 34 35 36 36 36 32 27 23 26 24 23 21 16 14 12 11 11 13 8
7 7 5 2 2 3 4 4 4 2 2 3 6 9 11 13 11 14 14 14 15 19 24 27 31 30 30 32 34 27 23 30 33 31 30 27 21 18 17 17 17 17 15
8 9 8 5 2 1 1 1 1 1 2 3 5 8 11 14 14 16 16 16 18 19 18 18 22 21 25 33 30 33 36 41 41 35 25 24 27 26 23 22 21 20 18
8 11 8 5 2 3 4 5 5 4 3 2 1 5 7 10 11 12 12 13 14 16 15 13 13 14 15 15 16 19 14 21 18 16 27 29 22 19 20 21 22 17 15
9 11 10 7 6 5 5 7 7 7 6 5 5 6 6 5 4 5 5 5 5 6 6 7 9 10 12 14 15 16 22 21 25 27 26 21 17 16 15 17 17 18 17
9 10 11 11 10 7 6 6 6 6 5 3 5 6 8 10 10 9 7 5 5 5 12 14 15 16 16 19 19 24 26 25 22 27 27 20 19 20 20 20 19 18 15
8 8 11 13 11 9 8 8 7 6 3 1 1 3 4 4 5 6 7 7 10 11 14 16 17 17 18 18 18 20 20 18 18 17 18 19 20 17 16 17 23 22 19
10 10 9 10 10 11 12 12 10 8 6 5 4 4 4 4 3 1 3 3 6 7 7 10 10 12 12 12 12 16 16 15 14 16 18 21 21 22 21 21 21 19 19
9 9 9 9 9 9 11 11 10 10 9 7 6 8 9 8 8 7 5 2 3 5 6 6 7 8 8 10 13 15 17 16 16 18 20 19 19 19 18 19 19 19 17
14 12 10 9 10 10 10 12 12 13 11 11 12 11 12 12 11 10 9 8 6 5 4 3 5 6 7 9 10 12 13 16 18 16 17 17 20 19 16 16 18 17 15
15 13 13 12 11 11 12 12 13 14 15 15 14 13 12 13 13 10 9 9 10 9 5 5 6 11 12 13 13 15 15 16 17 17 16 18 19 15 15 14 14 15 14
16 13 11 11 11 12 13 13 13 14 16 15 13 13 13 15 15 13 11 10 11 11 9 12 16 13 14 15 15 18 16 18 18 16 17 17 16 13 13 15 15 16 16
17 15 13 11 11 11 12 13 14 16 16 15 13 13 14 14 15 15 12 11 12 13 15 17 16 16 17 16 16 18 16 15 18 14 13 14 16 15 14 15 16 16 16
18 16 15 16 16 17 15 15 15 15 15 15 14 13 11 10 11 13 15 14 13 12 11 10 11 13 15 13 15 17 15 13 14 14 17 17 17 18 19 20 20 21 20
18 16 16 17 18 21 22 22 21 20 20 19 17 16 14 12 13 15 16 17 16 14 13 14 16 17 16 14 14 16 18 18 18 19 20 22 23 22 22 23 20 18 18
Wind_Direction
221 226 229 236 238 237 236 236 238 241 239 244 256 256 246 244 242 246 246 250 255 256 258 262 265 274 267 261 251 222 240 221 201 228 240 253 222 237 235 214 230 236 246
240 233 234 228 232 236 238 241 241 241 241 248 246 253 249 252 241 240 246 250 246 253 259 260 259 269 267 267 247 253 251 238 232 220 219 234 235 248 227 229 224 220 222
207 210 214 224 227 232 237 240 240 245 243 240 241 240 247 242 242 241 246 251 249 250 261 255 254 260 260 250 234 224 229 223 223 229 221 218 220 223 203 199 207 209 210
212 222 228 227 224 233 241 241 242 248 246 238 236 241 244 243 250 241 247 247 248 249 260 255 254 252 256 246 245 242 237 231 226 227 226 218 211 206 211 188 182 197 195
219 213 222 225 255 245 249 249 244 248 251 243 242 244 248 249 253 244 243 246 250 254 256 257 259 261 260 247 249 247 235 230 223 219 218 211 205 185 205 204 201 195 190
236 244 238 244 279 244 247 247 244 245 249 249 247 247 247 249 254 253 249 248 249 253 255 255 258 256 256 248 249 246 246 229 226 223 228 222 220 212 206 201 189 169 198
244 248 251 271 261 259 244 256 247 245 245 249 250 251 252 253 253 252 253 251 251 253 255 258 258 256 252 252 256 247 240 227 239 246 238 233 232 221 203 194 201 198 200
249 257 262 268 263 261 249 260 258 241 237 249 258 260 260 257 259 261 255 254 255 256 258 260 257 256 255 248 243 239 236 225 225 228 232 233 230 219 214 212 210 200 179
252 265 265 260 250 251 258 256 253 246 253 260 267 267 267 262 259 259 259 256 254 254 255 255 254 252 250 248 235 230 216 214 210 210 218 221 218 210 207 198 184 169 123
242 238 254 252 252 261 273 264 244 270 270 271 272 266 266 266 267 262 260 259 257 254 254 253 253 255 254 241 233 224 210 212 207 203 201 200 198 195 196 195 179 166 140
189 171 200 254 279 297 284 284 289 278 261 249 254 265 275 287 281 277 276 267 258 253 251 254 254 252 250 244 238 230 229 220 203 199 184 174 168 177 184 187 191 191 173
200 213 233 292 295 290 301 299 296 298 289 259 254 260 269 271 276 280 269 262 264 254 253 258 261 260 250 243 232 233 234 216 199 188 177 169 172 172 174 187 190 187 187
199 192 191 202 278 264 281 302 307 313 279 237 229 229 228 246 259 269 272 273 272 267 258 264 268 269 255 241 234 229 223 220 202 183 181 174 168 159 146 135 138 150 137
186 199 192 201 242 182 163 149 201 131 135 206 234 238 252 264 266 266 267 267 270 271 273 276 263 255 243 224 223 224 230 213 196 185 174 167 152 146 141 140 134 130 124
193 194 193 181 143 117 91 79 77 75 86 94 258 273 282 291 294 285 278 269 263 263 270 265 254 232 211 219 209 206 196 177 162 148 147 147 147 147 148 152 144 135 128
197 192 202 186 158 138 115 97 91 74 62 81 84 82 65 34 41 31 16 354 298 241 213 182 160 159 147 146 136 124 146 148 148 148 146 152 150 169 175 179 161 152 145
215 210 203 196 186 174 165 153 128 103 96 101 96 87 83 78 79 82 82 78 104 147 122 113 109 108 107 117 116 121 126 134 141 143 153 167 172 179 187 184 175 162 152
204 208 206 212 206 197 199 191 187 175 176 206 111 101 95 86 92 90 86 86 88 103 110 112 115 118 120 119 120 128 137 146 155 159 158 162 182 176 174 175 176 173 161
205 194 202 206 217 220 209 203 203 203 217 236 240 240 239 233 251 230 19 76 107 110 109 114 121 125 122 127 135 138 138 143 164 166 168 175 178 175 170 170 172 171 172
212 207 206 213 219 222 220 221 225 222 227 243 246 253 261 263 265 275 284 282 157 148 140 146 146 151 155 162 160 156 158 167 173 178 180 180 182 181 177 180 180 181 191
200 198 204 212 217 223 232 230 234 234 238 246 251 259 256 249 252 267 271 264 244 202 175 201 212 198 193 193 185 184 187 184 182 182 188 185 178 177 185 192 190 190 186
201 203 208 220 225 227 232 237 236 236 241 248 256 262 256 254 249 255 259 253 243 234 238 280 265 245 236 217 205 200 200 193 186 183 184 183 186 192 187 184 188 195 198
201 202 214 223 229 234 236 238 238 242 249 253 258 255 243 247 245 243 250 241 223 230 254 259 266 253 237 229 223 212 207 201 198 197 198 193 189 196 202 211 216 221 223
202 206 217 222 227 230 235 241 243 249 253 257 257 254 252 253 247 241 226 210 221 242 256 269 249 238 239 233 225 218 221 223 210 209 206 198 206 212 216 223 226 232 234
206 212 227 237 236 234 235 239 243 246 249 251 255 254 253 248 239 229 223 227 239 263 269 252 237 227 226 225 216 212 215 212 211 210 215 220 226 230 234 236 244 244 251
208 213 231 246 247 248 249 251 246 246 247 248 249 252 251 244 235 229 231 240 251 258 248 233 218 217 215 210 211 211 212 210 216 222 230 236 241 240 242 247 251 246 237